CDT,Max TemperatureF,Mean TemperatureF,Min TemperatureF,Max Dew PointF,MeanDew PointF,Min DewpointF,Max Humidity, Mean Humidity, Min Humidity, Max Sea Level PressureIn, Mean Sea Level PressureIn, Min Sea Level PressureIn, Max VisibilityMiles, Mean VisibilityMiles, Min VisibilityMiles, Max Wind SpeedMPH, Mean Wind SpeedMPH, Max Gust SpeedMPH,PrecipitationIn, CloudCover, Events, WindDirDegrees
2013-10-1,88,78,67,64,60,52,76,60,43,29.84,29.80,29.76,10,10,10,21,12,25,0.00,0,,160
2013-10-2,89,80,71,68,65,61,90,67,43,29.96,29.85,29.78,10,10,10,23,13,29,0.00,3,,168
2013-10-3,90,81,71,67,63,58,84,63,41,29.83,29.77,29.71,10,10,10,25,17,33,0.00,0,,173
2013-10-4,90,81,72,67,64,61,84,64,44,29.88,29.77,29.73,10,10,10,24,15,32,0.00,1,,173
2013-10-5,78,64,50,64,45,33,93,67,40,30.14,30.02,29.79,10,10,2,26,11,35,0.40,6,Rain,39
2013-10-6,75,60,44,47,37,28,93,56,19,30.22,30.14,30.09,10,10,10,16,6,20,0.00,0,,297
2013-10-7,83,67,50,44,38,34,63,41,19,30.18,30.10,30.04,10,10,9,9,4,10,0.00,0,,183
2013-10-8,84,69,53,45,42,38,64,42,20,30.04,29.98,29.91,10,10,10,16,10,22,0.00,0,,164
2013-10-9,83,70,57,53,48,43,60,47,33,29.99,29.92,29.88,10,10,9,23,12,30,0.00,0,,162
2013-10-10,84,74,63,61,57,53,84,64,43,30.00,29.88,29.77,10,10,10,30,17,37,0.00,1,,162
2013-10-11,88,77,66,64,59,53,81,56,31,29.93,29.81,29.73,10,10,10,25,11,33,0.00,1,,195
2013-10-12,87,75,62,62,47,36,78,48,18,30.03,29.95,29.85,10,10,10,13,6,16,0.00,0,,349
2013-10-13,76,69,62,65,59,47,93,71,48,30.21,30.10,30.03,10,10,4,17,6,22,0.09,7,Rain,115
2013-10-14,76,71,65,72,67,32,100,87,74,30.10,29.98,29.86,10,9,2,21,10,28,0.31,6,Rain,169
2013-10-15,74,62,49,68,53,46,97,88,79,30.12,30.03,29.86,10,10,5,23,12,28,0.40,7,Rain,350
2013-10-16,61,54,46,49,44,40,89,70,51,30.17,30.10,30.06,10,10,10,15,7,20,0.00,7,,13
2013-10-17,71,56,41,48,43,37,89,65,40,30.13,30.05,29.94,10,10,10,15,6,20,0.00,0,,162
2013-10-18,73,59,44,58,50,38,89,73,57,30.21,29.98,29.86,10,8,1,38,13,46,0.20,7,Rain,88
2013-10-19,65,51,36,40,36,33,92,62,31,30.27,30.18,30.07,10,10,10,17,6,27,0.00,2,,325
2013-10-20,77,61,45,55,47,38,76,61,46,30.05,29.90,29.78,10,10,10,24,12,32,0.00,0,,187
2013-10-21,65,56,47,53,49,44,93,73,52,30.16,29.98,29.82,10,10,10,21,9,28,0.00,4,,345
2013-10-22,75,57,39,44,41,37,92,60,27,30.21,30.14,30.06,10,10,3,10,5,17,0.00,0,,223
2013-10-23,80,66,51,45,40,35,66,44,21,30.15,30.09,30.03,10,10,9,21,6,24,0.00,0,,199
2013-10-24,78,64,50,48,43,39,71,49,26,30.22,30.15,30.09,10,10,10,15,5,18,0.00,0,,146
2013-10-25,74,61,48,53,47,41,80,59,38,30.34,30.24,30.17,10,10,10,16,7,21,0.00,0,,129
2013-10-26,80,69,58,61,56,48,93,70,47,30.18,30.09,30.00,10,10,8,17,10,23,T,3,,201
2013-10-27,72,64,56,56,51,48,87,68,49,30.17,30.07,29.96,10,10,9,14,6,17,0.00,5,,340
2013-10-28,80,70,59,63,61,55,93,74,54,30.04,29.95,29.87,10,10,7,23,15,30,0.00,5,,162
2013-10-29,82,76,69,66,64,62,84,70,55,30.03,29.94,29.88,10,10,10,21,14,28,0.00,3,,175
2013-10-30,74,72,70,67,65,61,84,74,64,29.94,29.83,29.70,10,10,10,29,17,38,0.00,2,,181
2013-10-31,73,62,51,62,39,29,73,48,22,29.88,29.81,29.70,10,10,10,26,12,37,0.00,0,,266